Location: Lawrence Hall of Science
(37.8785°N, 122.2415°W)
Time: 16:43:28
(UTC-08:00)

Cosmos 1461 - Visible Passes

Search period start: 22 February 2018 00:00
Search period end: 04 March 2018 00:00
Orbit: 503 x 667 km, 65.0° (Epoch: 21 February)

Date Brightness Start Highest point End Pass type
(mag) Time Alt. Az. Time Alt. Az. Time Alt. Az.
22 Feb 5.3 05:52:04 10° S 05:55:41 28° ESE 05:59:29 10° NE visible
23 Feb 4.1 05:57:58 10° S 06:02:03 48° ESE 06:06:24 10° NE visible
24 Feb 3.1 06:04:15 10° SSW 06:08:31 86° ESE 06:13:03 10° NNE visible
25 Feb 6.0 04:34:28 10° SE 04:36:30 13° ESE 04:38:34 10° ENE visible
25 Feb 3.1 06:10:51 10° SW 06:15:04 55° WNW 06:19:32 10° NNE visible
26 Feb 5.3 04:39:24 10° SSE 04:42:46 23° ESE 04:46:16 10° ENE visible
27 Feb 4.3 04:46:29 19° S 04:49:07 39° ESE 04:53:18 10° NE visible
28 Feb 3.2 04:53:57 37° S 04:55:32 70° ESE 05:00:03 10° NE visible
01 Mar 2.9 05:01:10 52° WSW 05:02:03 68° WNW 05:06:35 10° NNE visible
02 Mar 5.9 03:31:44 15° ENE 03:31:44 15° ENE 03:32:58 10° ENE visible
02 Mar 3.5 05:08:12 39° WNW 05:08:39 40° NW 05:12:57 10° NNE visible
03 Mar 5.6 03:38:38 19° ENE 03:38:38 19° ENE 03:40:10 10° NE visible
03 Mar 4.2 05:15:05 25° NW 05:15:20 25° NW 05:19:09 10° N visible
